Tracking 29892 objects as of 21-Nov-2024
HD Live streaming from Space Station
objects crossing your sky now

STARLINK-5068

Track STARLINK-5068 now!
10-day predictions
STARLINK-5068 is classified as:


NORAD ID: 55423
Int'l Code: 2023-014AJ
Perigee: 577.5 km
Apogee: 581.1 km
Inclination: 70.0 °
Period: 96.1 minutes
Semi major axis: 6950 km
RCS: Unknown
Launch date: January 31, 2023
Source: United States (US)
Launch site: AIR FORCE WESTERN TEST RANGE (AFWTR)
Your satellite tracking list
Your tracking list is empty




NASA's NSSDC Master Catalog

Two Line Element Set (TLE):
1 55423U 23014AJ  24325.65107421  .00005380  00000-0  45863-3 0  9996
2 55423  69.9990 199.7608 0002617 270.0707  90.0152 14.98305430100557
Source of the keplerian elements: AFSPC